Погода в Цзинане

Китай     36°40′49″N   117°01′49″E
темп.,
°C
ветер,
м/с
пор.,
м/с
влажн.,
%
обл.,
%
осадки,
мм/ч
давл.,
гПа
погр.,
м
8 марта, пн
пн823:00+6вюв12312 0.0 102934
02:00+5зюз11453 0.0 102824
05:00+4ю115786 0.0 102822
08:00+6вюв115493 0.0 102866
11:00+11юз243999 0.0 1028809
14:00+14ююз2333100 0.0 10251013
17:00+14юз3431100 0.0 10241004
20:00+11ююз2538100 0.0 1025217
9 марта, вт
вт923:00+10ююз2543100 0.0 1025183
02:00+9ююз2647100 0.0 1025222
05:00+8ю2649100 0.0 1025191
08:00+9ююз3853100 0.0 1026412
11:00+14юз344721 0.0 1027794
14:00+17юз344211 0.0 10251372
17:00+17юз33390 0.0 10251675
20:00+14ююз23510 0.0 102779
10 марта, ср
ср1023:00+13ююз24580 0.0 1028126
02:00+11ююз36660 0.0 1028170
05:00+10ююз35680 0.0 1027155
08:00+11ююз26652 0.0 1028278
11:00+15ююз344798 0.0 1028932
14:00+18юз343399 0.0 10251863
17:00+18ююз2332100 0.0 10241840
20:00+15ю1238100 0.0 102483
11 марта, чт
чт1123:00+14ю2340100 0.0 1025126
02:00+13ююз4747100 0.0 1025767
05:00+12ююв3552100 0.0 1024265
08:00+12ююз365496 0.0 1025424
11:00+15юз334227 0.0 10251307
14:00+16юз223844 0.0 10241786
17:00+16юз123858 0.0 10221680
20:00+14юз234629 0.0 1024185
12 марта, пт
пт1223:00+12ююз25540 0.0 1025205
02:00+11ююз235816 0.0 102471
05:00+10ююз22630 0.0 102550
08:00+11ю23580 0.0 1027141
11:00+16вюв23370 0.0 10261061
14:00+20ю23260 0.0 10241722
17:00+19ююз442865 0.0 10221874
20:00+16ююз363782 0.0 1023550